Tracking 31027 objects as of 19-Jul-2025
HD Live streaming from Space Station
objects crossing your sky now

NOAA 16 DEB

Track NOAA 16 DEB now!
10-day predictions


NORAD ID: 41356
Int'l Code: 2000-055HZ
Perigee: 802.2 km
Apogee: 858.6 km
Inclination: 98.8 °
Period: 101.4 minutes
Semi major axis: 7201 km
RCS: Unknown
Launch date: September 21, 2000
Source: United States (US)
Launch site: AIR FORCE WESTERN TEST RANGE (AFWTR)

Note: This is SATELLITE DEBRIS
Your satellite tracking list
STARLINK-3349
Track 1 satellite(s)




NASA's NSSDC Master Catalog

Two Line Element Set (TLE):
1 41356U 00055HZ  25198.92627821  .00002477  00000-0  11623-2 0  9996
2 41356  98.7617 252.0923 0039199  26.4519 333.8647 14.20613785489866
Source of the keplerian elements: AFSPC